Theta_e
325 327 331 339 347 348 349 349 350 350 350 350 350 349 349 349 349 349 349 349 349 349 349 349 349 349 350 349 349 349 349 349 349 349 349 348 348 348 349 349 349 349 350 350 350 350 350 351 350 350 349 350 350 349 350 350 349 346 343 341 340 340 340 339 340 343 344 345 346 348 349 353 354 354 354 353 353 353 351 351 351 348 347 348 351
327 328 331 333 346 347 348 349 350 350 349 349 349 349 349 349 349 349 349 349 349 349 349 349 349 349 349 348 348 349 348 348 348 348 348 348 347 348 347 347 347 348 348 349 350 350 350 350 350 350 348 349 348 348 347 345 344 342 340 339 338 337 337 337 337 339 340 342 342 342 343 346 352 352 352 353 352 353 351 351 351 347 345 350 350
328 328 331 332 345 347 348 349 349 350 349 349 349 349 348 349 348 349 348 348 348 349 349 348 348 348 347 348 347 348 347 348 348 347 348 348 348 348 348 347 348 347 349 348 349 349 349 348 348 348 346 346 345 344 343 341 340 339 338 338 337 336 335 333 333 335 336 339 339 337 337 339 344 351 350 350 352 352 350 351 351 349 346 348 348
327 328 329 334 343 346 348 348 348 349 349 348 348 348 348 348 349 349 348 348 348 348 348 347 348 348 347 347 347 348 347 347 347 347 347 347 347 347 347 347 347 347 348 347 348 348 347 346 344 343 341 341 341 340 339 338 338 337 337 337 335 334 333 331 329 332 332 334 334 332 332 331 334 345 350 349 349 350 350 350 349 348 349 349 349
327 327 328 331 338 344 347 348 348 348 348 348 348 348 348 348 348 347 348 347 347 347 347 347 347 347 348 347 347 347 346 346 346 345 345 345 345 345 345 346 346 346 346 347 346 346 345 343 341 340 338 337 337 337 336 336 336 335 335 335 333 332 330 327 327 328 327 327 328 326 325 328 330 338 349 349 349 349 349 349 348 349 349 350 349
326 326 327 328 331 338 345 347 347 348 348 348 347 348 348 348 347 347 347 347 347 347 347 347 347 347 347 346 346 346 345 344 343 343 343 343 343 343 344 345 346 346 346 346 346 344 342 341 339 338 336 335 335 335 335 334 333 333 332 332 331 330 329 326 326 325 322 321 321 319 320 325 327 331 347 349 349 348 349 348 348 349 349 350 349
325 322 325 326 327 332 343 346 346 347 347 347 347 347 347 347 346 347 347 347 347 348 347 347 347 347 346 345 345 344 344 343 342 341 341 340 341 342 343 343 344 343 343 343 342 342 340 339 337 336 335 334 333 333 332 331 331 331 331 330 329 329 327 326 327 323 320 313 312 315 318 324 325 327 344 349 349 349 348 348 348 348 349 349 350
322 322 321 323 325 333 340 346 345 346 345 345 346 346 346 346 346 346 347 347 347 347 347 346 346 346 345 345 344 343 342 341 340 339 340 339 338 339 339 340 340 340 340 340 340 339 338 336 335 335 334 332 331 330 329 329 329 329 328 327 327 327 326 326 325 319 318 309 311 314 319 325 325 327 343 348 349 349 348 347 347 348 348 348 348
322 321 321 322 323 335 339 342 345 344 344 345 344 345 345 345 345 345 345 345 345 345 345 345 344 344 343 343 342 341 340 340 339 338 337 337 337 337 338 338 338 338 338 338 337 336 335 334 333 332 331 330 328 328 328 328 328 327 326 325 325 325 324 322 320 316 310 310 311 313 320 326 325 328 343 348 347 349 348 347 348 348 348 347 347
321 320 319 320 321 333 338 340 344 343 343 344 344 343 343 343 344 344 344 343 343 343 343 343 343 343 342 342 341 340 339 338 337 336 336 336 336 336 336 336 336 336 335 335 334 333 333 331 331 330 329 328 327 326 327 327 326 325 325 323 324 324 322 319 315 313 307 309 311 311 320 329 324 327 341 347 347 348 346 344 345 345 346 346 347
319 318 318 319 319 333 338 340 342 343 341 343 345 343 342 341 341 340 341 342 342 342 342 342 341 341 341 340 339 338 337 336 335 334 334 334 334 334 334 334 334 333 332 332 333 332 332 331 329 328 328 326 326 325 325 324 324 323 323 322 322 322 320 316 310 304 306 307 310 310 315 325 321 327 345 346 347 346 343 343 343 344 345 346 347
318 317 317 318 324 332 337 339 341 341 342 341 340 341 342 340 338 338 338 339 340 341 340 340 339 339 338 337 337 336 335 334 333 332 332 332 332 333 332 332 331 331 330 330 330 330 330 329 329 327 326 325 324 324 323 322 322 321 321 320 319 319 317 312 304 304 303 304 308 311 310 315 319 332 342 344 344 343 342 341 342 343 343 344 344
317 317 316 317 318 331 335 338 339 340 339 339 339 340 340 338 337 337 337 337 337 337 336 335 335 335 335 335 334 332 332 331 330 330 330 329 329 330 330 330 330 329 329 329 329 329 329 328 327 326 325 324 323 323 322 321 320 319 318 318 317 316 314 310 301 302 303 303 307 307 309 314 320 335 338 340 340 340 339 338 339 339 339 339 340
315 316 316 317 318 327 332 335 336 338 338 338 338 339 338 337 337 336 335 336 336 335 335 335 334 334 334 333 332 332 331 331 329 329 329 328 327 327 328 328 328 328 328 328 328 328 329 327 326 325 324 323 322 321 320 319 318 317 316 316 316 314 309 306 305 300 303 302 307 307 307 314 322 333 335 336 337 337 337 336 337 337 337 337 337
316 314 315 316 318 321 328 332 334 335 336 337 338 337 336 336 336 335 335 334 334 334 334 333 333 333 332 332 332 331 330 330 330 329 328 326 326 326 326 326 327 327 327 327 327 327 326 326 325 325 324 322 321 320 319 318 317 316 315 314 313 312 307 298 300 299 301 304 303 306 306 311 329 332 333 335 336 335 335 335 334 334 335 335 335
314 313 312 314 316 316 321 326 331 330 334 335 336 336 337 334 335 335 334 334 334 333 333 333 332 332 332 331 331 331 330 329 329 328 328 327 326 327 327 327 327 327 326 325 325 324 324 324 324 322 322 321 320 319 318 317 315 314 313 312 311 310 307 301 297 297 299 301 301 306 306 312 327 330 332 333 333 333 333 332 332 332 332 332 332
312 312 313 313 312 316 317 319 324 327 328 329 332 332 334 335 335 333 334 333 333 332 331 331 332 331 330 330 330 329 328 327 327 328 328 326 326 326 326 326 327 326 325 325 325 324 323 323 322 321 320 320 319 318 316 315 314 312 311 310 310 308 305 301 296 296 299 303 301 304 306 313 324 329 330 331 331 331 331 331 330 330 331 331 330
309 311 314 314 313 314 315 316 320 322 321 325 326 330 332 334 334 333 334 333 332 330 330 330 329 329 328 328 328 327 326 326 326 327 327 326 326 325 326 327 327 326 324 323 323 322 321 320 319 319 318 318 317 316 315 313 312 310 309 308 307 306 304 301 294 295 297 303 297 304 306 320 324 327 329 329 329 329 329 329 329 329 329 329 329
307 308 312 313 314 313 314 314 315 317 319 321 323 326 327 330 332 332 332 332 332 331 330 329 329 328 328 328 326 325 324 325 325 326 326 324 324 324 325 325 325 324 323 321 321 319 319 317 317 317 317 316 315 314 313 311 310 309 308 306 304 302 300 296 293 293 295 297 298 299 307 319 323 326 327 327 327 327 327 327 327 327 328 328 329
306 308 310 311 312 312 312 313 314 315 317 319 320 321 325 325 328 329 329 330 330 329 329 328 326 325 325 324 322 318 318 318 320 320 322 322 322 320 323 323 323 322 321 320 319 318 317 315 315 314 314 313 313 312 311 309 308 307 306 304 301 298 292 291 291 293 292 297 299 297 313 318 321 325 325 326 325 325 325 326 326 327 327 327 328
306 307 308 310 310 311 311 311 311 312 316 317 317 318 321 322 323 324 325 327 327 327 327 324 319 318 317 316 314 309 307 308 309 309 315 310 317 319 322 322 322 320 320 319 318 317 316 314 313 311 309 307 305 306 307 307 306 305 303 300 297 291 291 291 291 294 292 295 297 299 313 317 319 323 324 325 324 324 325 325 325 326 326 326 326
307 307 307 309 310 310 311 310 310 310 312 313 314 314 316 320 315 316 318 322 322 321 318 312 313 308 311 308 304 306 303 301 303 310 306 309 312 317 320 321 320 318 318 318 317 316 315 313 312 310 308 305 301 290 293 300 302 302 300 297 290 290 290 290 290 290 292 293 295 305 312 316 318 321 323 323 323 323 324 324 324 325 325 326 325
306 306 308 308 309 309 309 310 310 309 309 309 311 311 312 312 311 313 314 317 316 314 310 309 305 304 301 300 302 301 299 299 301 304 305 310 310 315 318 319 317 316 316 315 315 314 313 312 310 307 305 300 291 289 289 288 290 296 294 290 288 289 289 289 289 289 289 294 291 307 310 315 317 319 322 322 322 322 322 323 324 324 324 325 325
308 308 308 307 307 308 309 309 309 307 308 308 308 309 310 309 311 311 312 311 309 308 305 303 302 300 298 297 297 298 298 298 307 309 309 304 308 313 315 315 315 313 312 310 313 311 310 308 306 303 298 293 289 289 288 289 288 288 288 288 288 288 288 288 288 288 288 292 293 306 308 313 316 318 321 322 322 322 322 323 324 324 324 324 324
307 305 304 306 306 307 308 308 308 307 307 307 308 308 307 307 307 307 308 306 305 303 302 300 299 297 295 296 295 297 297 299 298 298 297 296 294 294 296 295 295 296 299 291 291 293 290 288 290 292 289 290 289 289 289 288 289 288 287 287 288 287 287 288 287 287 287 288 293 304 306 310 314 317 319 321 321 322 321 323 323 323 323 324 324
302 304 306 306 306 307 307 307 306 306 306 307 307 308 306 306 305 305 304 304 303 301 299 298 296 295 294 295 296 296 297 296 294 294 293 292 290 289 290 290 290 291 292 288 288 288 288 288 289 289 288 288 288 288 289 290 287 287 287 287 287 287 286 286 286 286 287 287 291 302 305 307 312 315 317 320 321 322 321 322 322 323 323 323 323
301 304 305 305 305 305 306 306 306 305 304 305 305 305 305 305 304 303 304 301 299 299 297 295 295 294 294 295 295 295 295 293 292 291 290 289 288 287 288 288 288 287 289 288 288 288 288 287 287 287 287 287 287 287 287 286 286 286 286 286 286 286 286 286 286 286 286 287 291 299 303 306 310 313 316 319 320 321 321 321 322 322 322 322 322
299 301 302 303 303 304 305 305 306 305 304 303 304 304 303 303 303 303 303 302 299 299 296 294 294 294 294 295 295 295 294 292 291 290 289 287 288 287 287 287 287 287 289 288 288 287 287 286 287 286 287 287 287 286 286 286 285 285 286 286 286 285 285 285 285 286 286 286 288 294 301 304 307 310 314 317 318 320 320 320 321 322 322 321 321
299 300 300 300 301 303 304 305 306 305 304 303 303 303 302 301 301 301 301 302 299 299 296 294 293 293 293 294 295 293 291 291 290 289 287 288 287 287 286 286 287 287 288 287 288 287 287 286 287 286 285 286 286 286 286 285 285 285 285 285 285 285 285 285 285 285 285 285 286 291 299 302 306 308 311 315 316 318 319 319 320 320 321 320 319
299 299 299 299 300 301 302 304 305 305 304 302 303 302 301 301 300 300 300 300 298 297 295 294 293 293 293 294 294 293 291 291 290 288 287 287 286 286 287 287 287 287 287 287 287 286 286 285 285 285 285 285 286 288 286 285 285 285 285 285 285 285 285 285 285 285 285 285 286 288 295 299 303 306 309 312 315 315 316 317 318 319 319 319 318
298 298 298 298 299 298 300 302 304 304 303 302 302 302 301 301 300 299 299 298 297 295 295 294 293 293 293 293 293 293 291 290 289 288 287 286 286 286 286 286 286 286 287 287 286 286 285 285 286 285 285 284 285 286 285 284 284 284 285 284 284 285 285 285 285 285 285 285 285 286 289 296 300 303 307 310 312 312 312 313 316 317 317 316 317
297 298 299 298 297 298 298 300 302 303 302 301 302 301 300 300 299 298 298 297 295 294 294 294 294 293 293 293 292 291 292 289 289 288 287 286 286 285 285 286 286 286 286 286 286 286 285 285 285 285 284 284 285 284 285 283 283 284 283 284 284 284 284 285 285 285 285 285 284 285 286 290 295 300 303 306 309 309 310 311 313 313 313 313 315
299 299 298 297 297 297 297 298 300 301 301 301 301 301 300 299 298 297 297 296 295 294 294 294 293 293 293 293 292 291 292 290 289 289 290 286 285 285 285 286 286 286 286 286 286 286 286 286 285 285 284 284 284 284 285 283 283 283 283 284 283 284 284 284 284 284 284 284 284 285 286 288 288 295 299 301 305 307 308 308 308 308 309 311 314
299 299 297 297 298 298 298 298 298 299 300 300 300 299 299 298 298 296 296 295 295 294 294 294 293 293 293 292 291 291 291 289 289 288 288 286 285 285 285 285 285 285 286 286 285 285 285 284 285 285 288 284 283 283 283 283 283 282 283 283 283 283 283 284 284 284 284 284 284 285 286 286 287 289 291 297 299 304 305 305 305 306 308 309 310
299 297 297 298 298 298 298 297 298 297 299 299 299 298 297 297 296 295 295 295 294 294 294 293 293 292 293 292 291 291 290 289 289 289 287 286 285 284 284 284 285 285 285 285 285 285 285 284 283 282 282 282 283 285 282 282 282 283 283 284 283 284 283 283 284 284 284 284 285 285 286 286 288 289 290 287 292 298 301 302 303 304 306 307 308
299 299 298 298 297 297 297 297 297 297 297 298 298 298 297 296 295 296 294 294 294 294 293 293 293 292 292 292 291 291 290 289 289 288 288 286 285 284 284 284 285 285 285 284 285 285 284 284 284 282 282 282 283 281 282 282 282 283 283 283 282 285 282 282 284 284 284 284 284 285 286 286 288 289 290 286 286 291 297 299 300 301 303 304 305
299 299 298 297 297 296 297 297 296 297 297 297 297 296 295 294 294 294 293 293 294 293 293 292 292 291 291 292 291 291 290 289 289 288 288 287 286 284 283 284 285 284 284 283 284 285 284 284 283 284 282 282 281 281 281 282 282 282 282 281 282 283 282 283 284 284 285 283 284 284 285 285 288 290 284 284 285 285 292 295 296 297 299 301 302
299 299 299 298 297 296 296 296 297 297 297 297 297 296 294 293 293 292 293 292 293 293 292 291 291 291 291 292 291 291 291 289 289 288 288 287 286 285 284 284 285 284 283 283 283 284 282 282 282 282 281 281 280 280 281 281 282 282 282 282 282 281 282 282 285 287 282 283 284 283 283 283 284 284 284 284 284 284 285 289 292 293 294 298 300
298 298 298 298 297 296 296 296 296 296 296 297 297 296 294 292 291 291 291 291 291 291 291 290 291 291 291 291 291 291 291 289 289 288 287 287 286 285 284 284 284 283 283 283 283 283 282 281 282 282 281 281 281 280 281 282 281 282 282 281 281 281 282 285 282 282 282 283 286 285 284 283 283 283 284 283 283 283 284 284 283 283 285 295 297
297 297 297 297 297 295 295 295 296 296 296 296 296 295 293 292 291 289 289 291 291 291 290 291 290 291 291 291 291 291 291 289 288 288 288 287 286 285 284 284 284 284 283 283 283 282 282 282 281 282 282 281 281 280 280 282 280 280 283 281 281 282 284 283 282 282 282 281 282 282 283 282 282 282 283 282 283 283 284 284 285 283 284 288 294
296 296 296 296 296 296 295 294 295 295 295 295 295 294 292 291 291 291 291 291 291 291 291 291 291 291 291 291 291 291 290 289 288 288 287 288 286 284 284 284 284 284 284 284 284 282 282 282 283 282 280 279 280 279 280 279 280 280 279 280 281 281 286 282 280 281 281 281 281 282 282 282 281 282 282 282 282 283 283 283 283 283 283 283 286
294 295 296 297 297 296 295 295 295 295 295 295 295 295 294 294 293 292 292 292 291 291 291 291 291 291 290 290 290 290 290 289 289 288 287 287 285 284 284 284 284 284 284 283 282 283 283 282 282 280 280 278 279 279 280 279 279 278 279 280 279 279 283 281 281 280 281 282 281 281 282 282 281 282 282 282 282 282 282 282 282 282 283 283 284
295 295 296 296 296 295 295 295 294 294 295 295 295 295 295 294 294 293 293 291 292 292 291 291 291 290 289 289 290 290 289 289 288 288 287 287 286 285 284 284 284 284 283 282 282 281 282 282 282 281 279 280 280 280 279 278 278 279 279 279 278 278 282 279 278 280 280 280 280 281 282 281 281 281 282 281 281 281 282 282 281 282 282 283 283
293 293 294 295 296 295 295 294 294 295 295 295 295 295 294 293 291 289 290 290 289 290 289 289 289 289 288 289 289 289 289 289 288 288 288 287 286 285 284 284 283 284 284 283 282 281 281 282 281 281 281 279 278 279 281 279 278 280 280 278 276 278 276 278 277 279 279 279 280 280 281 280 280 281 281 281 281 281 281 281 281 281 281 282 282
293 293 294 295 296 295 295 294 294 294 294 295 295 294 293 290 289 288 288 287 287 288 287 286 288 289 289 288 289 289 289 289 288 288 288 287 286 285 284 284 283 283 283 283 282 282 282 282 282 280 280 280 279 278 280 279 278 281 280 276 276 279 277 277 276 277 277 280 279 278 284 280 280 281 279 280 279 280 281 280 280 280 280 281 281
292 294 294 295 295 295 294 294 294 294 294 294 294 293 293 291 289 289 287 288 287 286 288 288 287 288 289 289 288 289 288 288 288 287 287 287 286 285 284 284 283 283 283 283 282 281 281 282 282 281 280 279 280 278 277 281 280 280 278 277 278 278 276 275 277 279 277 278 277 279 279 277 279 279 279 279 279 279 282 280 280 280 280 280 281
292 293 293 293 294 294 294 294 294 293 294 293 293 293 292 291 291 291 291 290 289 289 290 290 289 290 290 289 288 288 288 288 287 287 287 287 286 285 284 284 284 283 284 282 282 282 282 282 282 280 280 281 279 278 278 278 278 278 278 278 280 278 277 277 276 276 277 277 276 277 278 277 277 278 279 278 279 279 279 280 279 279 279 280 280
292 291 292 292 293 293 292 293 293 293 293 293 293 293 292 291 291 291 291 290 291 290 290 290 290 289 288 288 287 287 288 288 287 287 287 286 286 285 284 284 283 283 283 282 282 282 281 281 282 280 279 281 279 280 278 278 279 278 279 278 279 278 277 276 277 276 275 276 276 276 276 276 277 277 278 278 278 278 278 278 279 279 279 279 280
290 291 291 292 292 292 292 292 292 292 292 292 293 293 293 292 291 291 291 291 291 290 289 289 288 288 288 287 287 287 287 287 287 286 286 286 286 285 284 284 283 283 284 283 282 281 281 281 281 280 279 280 279 278 279 279 278 278 277 276 277 276 276 277 277 276 275 275 275 275 275 276 276 277 277 277 277 278 279 279 279 280 281 281 279
289 289 290 290 290 289 290 291 291 292 292 292 292 292 292 292 291 291 291 291 290 287 287 287 287 287 287 287 287 287 287 286 286 286 286 286 286 285 284 284 283 283 284 283 282 281 281 281 281 281 280 279 278 279 279 279 279 279 279 278 276 276 276 276 276 276 275 275 276 275 275 275 275 276 277 277 277 277 278 278 278 278 278 278 279
286 288 288 288 288 288 288 289 290 291 291 291 292 291 292 292 291 291 291 290 289 287 286 285 285 285 287 286 286 287 286 286 286 285 286 285 285 285 284 284 284 284 284 282 282 281 281 281 281 280 280 280 279 278 281 278 279 279 278 279 279 279 278 276 276 276 275 275 274 275 275 276 275 275 276 277 278 278 278 278 277 277 277 278 278
Wind_Speed
7 8 7 8 11 14 15 14 14 13 13 13 13 12 12 11 10 10 10 10 10 10 10 10 10 10 9 9 9 9 9 8 8 8 6 6 7 7 7 6 6 6 7 7 8 8 9 10 9 11 11 13 13 13 15 15 16 15 14 14 15 15 15 15 15 15 14 14 14 13 13 12 11 10 10 11 10 10 10 10 9 5 5 6 10
14 9 7 6 12 14 15 16 16 14 14 13 13 12 12 11 10 9 9 9 9 10 10 9 9 9 9 9 9 9 9 8 9 9 8 7 8 7 6 6 6 7 8 9 10 11 12 12 13 14 15 16 16 17 17 16 15 14 13 14 14 15 15 15 15 15 15 14 14 13 13 13 13 10 10 10 10 10 9 8 8 5 3 9 10
8 7 6 7 10 13 13 15 16 16 15 14 13 13 12 11 11 11 10 9 9 10 10 9 9 9 9 9 9 9 9 9 9 9 10 10 10 9 8 7 7 7 8 10 11 12 14 14 16 17 17 16 16 16 15 15 14 13 13 13 14 14 15 15 15 15 15 14 14 13 12 12 13 12 9 10 10 10 9 8 8 7 6 11 9
9 6 5 7 10 11 11 13 14 15 15 15 14 13 12 11 11 11 11 10 10 10 10 9 9 9 9 9 9 9 10 10 11 10 11 11 11 10 10 10 10 9 9 11 11 12 15 16 16 16 16 16 15 15 14 11 11 12 13 13 14 14 14 15 15 14 14 14 13 11 6 7 8 11 8 9 9 9 7 7 8 10 11 11 11
7 6 5 5 6 10 11 11 13 14 14 15 15 15 14 14 12 12 11 11 11 10 10 10 9 10 11 11 11 11 10 10 10 10 10 10 9 9 10 9 10 10 9 11 14 15 16 14 15 16 15 14 14 13 12 11 12 12 13 13 13 13 14 14 14 14 13 13 13 9 6 6 6 9 9 6 8 8 7 8 9 10 11 11 11
6 5 4 4 4 7 11 10 14 13 13 13 14 13 14 14 14 13 12 12 11 11 11 11 12 12 12 11 11 11 10 9 9 9 9 8 8 8 9 9 10 12 13 12 14 15 14 13 14 13 13 12 12 11 11 11 12 12 13 13 13 13 13 13 13 12 12 12 11 6 6 6 6 5 11 6 8 8 7 9 10 10 11 12 11
6 4 4 4 4 4 8 11 14 13 14 14 14 13 13 12 12 13 13 12 12 12 12 12 12 12 12 11 11 11 10 9 8 8 8 8 8 7 8 10 10 9 10 11 11 13 13 13 12 12 12 12 11 11 11 12 12 12 13 13 13 13 13 13 12 11 11 8 6 5 5 5 5 4 11 9 6 8 9 10 10 10 10 11 12
4 4 4 4 4 5 6 10 13 13 14 13 13 13 13 13 11 13 13 12 12 12 12 12 12 12 11 11 10 9 9 8 7 7 7 7 6 7 7 7 7 7 8 8 11 11 11 12 11 11 12 11 11 11 11 11 12 12 13 13 14 13 13 12 11 11 11 6 5 5 5 5 5 4 9 9 7 6 9 9 9 9 10 10 9
7 5 4 4 4 5 6 8 13 14 13 12 12 11 12 13 12 12 12 12 12 12 12 11 11 11 10 10 9 9 8 7 7 6 6 6 6 6 7 7 8 8 8 11 11 11 11 11 11 11 11 12 12 12 11 12 12 13 13 13 13 13 12 12 11 11 6 5 5 5 5 5 5 5 7 10 10 8 9 8 7 9 9 8 7
7 5 4 5 5 5 6 6 13 13 13 14 13 11 11 12 12 12 12 11 11 11 11 11 10 10 10 9 9 9 8 7 6 6 7 7 7 7 8 8 9 9 10 10 11 11 11 11 11 11 11 11 11 11 12 12 13 13 13 13 13 13 13 12 11 9 5 4 5 5 5 8 4 5 6 10 9 10 11 9 8 7 7 7 8
6 6 5 5 5 6 7 10 9 10 14 13 12 15 12 11 13 11 13 12 12 12 11 11 11 10 10 10 9 9 8 7 7 7 8 8 8 9 9 10 10 10 10 10 11 11 11 11 11 11 11 11 12 12 12 13 13 13 13 13 14 13 13 12 10 5 5 5 5 5 6 10 5 4 11 11 13 13 12 10 10 11 13 13 14
6 5 4 4 6 8 9 9 9 9 11 11 8 9 14 14 12 13 13 13 13 12 12 12 13 11 11 10 9 9 9 9 9 9 8 8 9 9 10 10 11 11 11 11 11 11 11 11 12 11 11 12 12 12 12 13 13 13 13 14 13 13 13 12 7 5 5 5 6 5 5 5 6 5 13 14 14 14 14 13 13 14 15 15 15
6 5 4 4 4 7 9 11 10 10 10 11 12 13 12 12 13 13 13 13 13 12 12 12 10 11 11 12 11 10 10 10 10 10 10 9 9 9 9 10 10 11 11 11 11 11 12 12 12 12 12 12 12 12 12 12 12 13 13 13 13 13 11 12 5 6 5 5 5 6 6 5 5 10 11 12 12 13 13 14 14 13 14 14 14
6 6 4 4 4 7 10 11 9 11 13 13 15 15 14 14 14 14 14 13 12 11 11 11 11 11 11 10 10 11 11 11 11 11 10 10 9 10 10 10 10 11 11 11 11 11 12 12 12 12 12 12 12 12 12 12 12 13 13 13 13 12 11 8 7 5 5 5 4 5 5 5 5 11 11 10 12 13 13 12 13 13 13 13 14
8 5 5 4 4 4 9 9 10 10 12 12 13 14 15 16 15 15 14 14 13 12 12 12 12 12 12 12 12 12 12 11 12 11 11 10 10 10 10 11 11 11 12 12 12 12 12 12 12 12 12 12 12 12 12 12 12 13 13 13 13 13 12 5 5 5 5 5 4 5 5 4 9 11 11 12 12 12 12 12 12 12 13 14 13
6 6 4 4 4 4 4 6 10 8 10 12 11 12 13 15 14 14 15 14 14 13 13 13 13 12 13 13 13 13 13 13 13 12 12 11 11 12 12 12 12 12 12 12 12 12 12 12 12 12 12 12 12 12 12 13 13 13 13 13 13 13 12 7 5 5 5 5 4 4 5 5 11 11 11 11 11 11 12 12 12 12 13 13 12
4 5 5 5 4 5 4 4 6 8 8 10 10 10 10 12 13 15 13 14 14 14 14 14 13 13 13 13 13 13 13 13 13 13 13 13 12 12 12 12 12 12 13 13 13 12 13 13 12 12 12 12 12 12 12 13 13 13 13 13 13 12 12 9 6 5 5 4 4 5 5 5 9 10 11 11 11 11 12 12 12 12 12 12 12
4 4 6 6 5 4 5 4 5 5 5 6 8 9 9 11 11 11 12 12 12 14 14 14 13 13 13 14 13 13 13 13 13 13 13 13 13 13 13 13 13 13 13 13 13 13 12 12 12 12 12 12 12 12 12 13 13 13 13 13 13 12 11 9 5 5 5 5 5 4 5 8 11 10 10 11 11 11 11 11 11 11 11 10 11
3 4 4 5 6 5 5 5 5 5 5 5 4 6 9 9 11 11 11 11 11 12 13 12 11 13 14 12 11 11 11 11 12 13 13 13 12 12 13 13 13 13 13 13 13 13 13 12 12 12 12 12 12 12 13 13 13 13 13 12 12 12 12 7 5 5 5 5 5 6 5 12 10 10 10 10 11 11 11 11 11 11 11 11 11
3 4 5 5 5 5 5 5 5 5 4 4 5 5 7 9 10 10 11 11 11 11 12 11 11 11 11 11 11 8 8 7 10 8 12 13 11 7 12 13 13 13 13 13 13 13 13 12 12 12 12 12 12 12 12 12 12 13 12 12 11 10 6 5 5 5 5 5 5 5 8 12 11 10 10 10 10 10 10 10 10 10 10 11 10
4 6 6 6 6 6 6 5 5 4 5 5 5 5 6 8 8 9 10 11 11 11 11 12 10 10 9 9 9 5 4 4 5 5 7 5 8 10 11 13 14 13 13 13 13 13 13 13 13 13 13 12 12 12 12 12 12 12 12 11 10 6 5 5 5 5 5 5 6 6 12 11 11 10 9 10 10 10 10 10 10 10 10 10 10
8 7 7 6 7 7 7 6 5 5 5 5 4 4 4 6 5 5 6 8 9 10 8 6 7 6 9 7 5 5 5 4 4 6 4 5 6 9 11 13 14 13 13 13 13 13 13 13 13 13 13 12 11 6 6 9 11 11 10 10 6 5 5 5 5 5 5 5 5 7 13 12 11 10 9 9 9 9 9 9 9 9 9 9 9
8 9 9 10 7 6 6 7 6 6 5 5 4 4 5 4 5 5 5 7 6 6 6 6 6 6 5 5 5 5 5 4 4 4 4 7 6 9 11 13 14 14 13 13 13 13 13 13 13 13 12 11 6 6 5 5 5 9 7 6 5 5 4 5 5 5 5 4 4 10 12 12 12 11 10 9 9 9 9 8 8 9 8 9 9
12 11 10 5 7 8 8 7 7 7 7 6 5 5 5 5 6 5 6 6 5 6 6 6 6 6 6 5 6 5 5 4 5 7 7 5 6 8 10 10 11 10 11 8 10 12 13 13 13 11 8 5 5 5 5 4 5 4 5 5 5 5 5 5 5 5 5 5 4 12 12 12 12 11 10 9 9 9 8 8 9 9 9 9 9
9 5 5 9 11 9 7 8 7 7 7 7 6 6 5 6 5 6 6 5 5 6 6 6 5 6 6 6 5 5 5 4 4 4 4 4 4 4 5 5 5 6 7 6 6 6 6 6 6 6 5 5 5 5 4 5 5 5 5 5 5 4 5 5 5 5 5 5 5 12 12 12 12 12 11 10 9 9 8 9 9 9 9 9 10
4 7 13 10 11 10 9 7 7 7 8 8 8 6 6 7 6 6 6 5 6 6 6 6 6 6 6 6 6 6 6 6 4 5 4 5 5 5 5 5 5 5 4 6 5 5 5 5 6 6 5 4 4 4 3 3 4 4 5 4 5 4 5 5 5 5 5 5 5 12 12 12 12 12 11 10 9 9 9 9 9 9 10 10 11
10 12 8 7 7 8 9 8 9 8 8 7 6 7 7 6 6 6 7 6 6 6 6 6 6 6 6 6 8 7 6 6 6 5 6 5 5 5 5 5 6 6 4 7 6 5 6 6 6 5 4 4 4 3 3 3 3 4 4 4 4 4 5 5 5 5 5 5 5 11 11 11 12 11 11 11 10 10 10 9 9 9 10 11 11
4 9 8 9 9 12 10 9 10 9 8 7 8 7 6 7 7 6 6 7 7 7 6 6 6 7 6 7 6 7 8 7 6 6 6 4 5 5 5 5 5 5 4 6 7 5 5 5 5 4 4 3 3 3 3 3 3 3 4 4 4 4 4 4 3 4 4 5 4 8 11 11 11 11 12 11 11 11 10 10 9 9 10 11 11
12 10 9 9 11 11 11 13 11 11 9 8 9 7 7 7 7 7 8 7 7 7 7 6 6 6 6 7 6 8 6 6 7 6 5 5 4 5 5 6 5 6 5 5 6 6 5 5 5 4 4 3 3 3 3 3 3 3 4 4 3 3 3 4 3 3 4 4 5 6 11 11 11 12 12 12 12 12 12 10 10 9 10 12 12
16 10 10 11 8 9 13 15 13 12 10 9 9 8 8 9 8 8 8 7 7 7 6 7 7 7 7 6 7 7 7 8 7 6 6 6 5 4 4 5 6 5 5 6 5 6 6 5 4 4 4 3 3 3 3 4 3 3 4 4 4 3 3 3 3 3 3 3 4 4 10 11 12 12 13 12 13 12 13 12 11 9 10 11 12
9 13 12 11 9 10 12 13 12 10 9 11 10 10 8 9 9 7 7 8 7 7 7 7 7 7 7 7 6 6 6 6 6 7 5 5 5 5 5 4 6 5 4 5 3 5 5 5 5 5 5 5 4 3 4 5 4 4 3 4 3 3 3 2 2 3 3 4 3 4 4 10 12 12 13 13 13 14 14 14 13 11 12 13 13
12 16 13 9 10 14 13 12 13 12 12 12 10 10 11 10 9 8 8 7 7 7 7 7 8 7 7 7 7 7 6 6 7 6 6 6 5 5 5 5 5 4 3 4 5 4 4 3 3 3 3 3 4 3 2 5 4 4 3 3 2 2 2 1 2 2 2 3 3 4 4 5 9 12 12 14 14 14 14 14 14 14 14 14 14
14 14 10 10 15 13 13 14 14 13 14 14 13 12 10 9 9 9 8 8 7 7 8 8 8 7 7 8 7 7 7 8 7 7 6 6 5 5 5 4 4 4 3 4 4 4 5 4 3 3 4 3 3 2 2 3 5 3 3 3 2 3 1 2 2 2 3 3 4 3 5 4 4 8 11 13 14 14 14 15 15 15 15 15 15
11 9 9 15 14 9 10 10 13 15 16 14 12 11 11 10 9 9 8 8 8 9 9 8 8 7 7 8 8 8 7 7 8 7 6 6 6 5 5 5 4 4 4 5 6 5 6 5 4 4 3 3 4 2 3 5 4 3 4 2 3 2 1 2 2 2 2 3 3 4 4 4 5 5 5 10 13 14 14 15 15 15 15 14 14
8 9 16 19 11 13 11 11 14 16 15 15 15 14 11 11 11 10 10 11 9 10 9 8 8 8 7 8 8 8 8 8 7 8 7 7 6 6 5 6 5 4 5 5 5 4 4 5 4 5 3 4 3 3 3 4 3 5 4 3 3 2 2 2 1 2 3 3 3 3 4 4 5 4 5 5 7 11 13 14 14 14 14 13 13
15 16 15 9 14 14 13 13 13 16 17 17 16 14 13 12 11 10 9 10 9 10 9 9 8 7 8 8 8 8 8 8 8 8 8 7 7 7 6 5 4 5 5 4 4 5 4 4 1 3 6 2 3 3 2 3 3 4 3 3 3 2 3 2 3 3 2 3 5 4 5 4 4 4 4 6 6 6 12 12 13 14 14 13 13
16 14 14 13 13 14 15 16 17 20 18 15 13 11 11 11 11 11 12 11 10 10 9 8 8 8 8 8 8 9 9 9 9 9 8 8 7 6 6 5 4 5 5 5 5 4 4 4 1 0 1 4 3 3 2 3 4 3 3 3 3 3 3 3 2 3 2 5 4 5 5 4 3 5 5 5 5 6 8 12 12 14 14 14 13
12 14 14 15 17 14 14 15 14 14 14 15 15 13 11 10 9 8 9 10 10 8 7 8 8 8 8 9 10 10 9 9 9 9 8 8 7 7 6 6 6 5 5 5 5 4 3 3 4 2 2 4 4 3 2 2 3 3 4 4 4 4 3 3 3 3 5 5 5 5 3 3 4 5 5 5 5 6 4 7 11 12 14 15 15
11 13 12 12 10 11 12 14 14 14 13 13 11 10 8 6 5 6 6 7 7 7 7 8 8 8 10 10 11 10 10 10 10 10 9 8 7 7 7 6 6 6 6 6 5 5 4 3 4 4 3 3 4 2 2 2 4 4 5 4 3 3 3 3 3 6 5 4 4 3 3 5 4 4 5 5 4 4 5 5 6 6 7 14 15
10 10 12 12 12 11 11 12 13 13 11 10 10 9 8 9 9 5 6 8 8 8 8 9 8 10 11 11 11 10 10 10 10 10 9 9 8 8 7 7 7 7 7 7 7 7 8 6 4 5 5 3 3 1 1 3 4 6 4 5 4 3 4 4 5 4 3 3 3 2 5 3 5 4 4 3 4 5 6 5 5 6 5 8 13
9 10 12 13 14 16 14 16 13 13 12 12 12 13 13 10 8 12 14 12 12 11 11 11 11 11 11 11 11 10 10 10 9 10 10 9 8 7 8 7 7 7 8 9 7 7 5 5 6 3 4 3 1 1 0 2 4 3 3 5 5 3 2 2 4 4 4 2 1 3 3 5 4 5 3 4 5 5 5 5 5 5 5 4 5
11 10 13 16 15 13 14 14 10 12 13 14 14 14 14 16 18 18 16 13 13 13 13 12 12 10 10 10 10 9 10 10 10 10 9 10 9 9 9 9 9 8 7 4 5 5 5 5 6 4 1 3 2 2 1 2 3 3 4 1 4 3 2 1 2 3 3 3 3 3 3 5 4 3 4 5 5 4 4 4 4 5 4 4 3
10 13 15 12 12 13 14 11 12 13 14 14 13 15 13 11 11 7 10 8 8 8 7 8 8 9 9 9 8 9 10 9 10 11 10 10 10 10 10 9 9 8 8 8 7 7 7 8 8 8 5 1 1 1 1 2 4 1 2 5 0 1 1 1 1 2 4 2 2 3 2 4 3 4 4 5 5 4 3 4 4 4 4 3 3
7 8 9 12 11 12 12 13 13 14 13 15 15 11 9 6 4 3 4 4 5 4 4 5 7 6 8 9 10 11 11 11 11 11 10 10 11 11 9 9 9 9 10 10 9 9 8 8 8 5 6 5 2 2 1 1 4 8 2 1 1 2 1 4 2 3 1 1 2 2 2 3 3 4 5 6 4 4 3 3 4 4 3 3 3
9 10 10 12 10 14 14 14 12 13 12 12 13 10 9 7 6 5 5 5 4 6 5 5 8 8 8 10 12 10 11 11 11 12 11 12 11 10 10 10 10 9 9 9 10 11 11 9 10 8 9 8 7 2 1 1 1 2 6 5 2 0 4 1 1 2 1 1 1 2 1 2 2 3 5 4 3 4 4 4 4 4 4 3 3
10 10 9 11 9 10 10 10 9 9 11 12 12 11 12 12 11 10 10 10 9 9 14 17 12 13 16 10 10 12 12 12 11 12 12 11 11 11 11 11 10 10 9 9 8 6 8 10 11 10 9 4 7 6 3 0 1 2 1 1 3 3 4 2 2 3 1 1 2 2 1 2 0 3 3 3 4 4 3 4 3 4 4 4 3
12 7 6 8 9 8 10 12 12 10 10 11 14 12 12 12 16 16 15 16 17 14 11 9 12 11 7 10 10 9 11 12 12 12 12 11 11 11 11 11 11 10 9 8 8 11 10 10 7 7 8 6 6 6 9 6 2 2 2 2 3 2 4 7 5 2 2 1 1 0 1 2 2 1 1 2 3 2 3 3 3 5 4 4 3
8 4 6 5 9 10 10 11 10 10 10 11 14 15 15 14 14 14 13 13 15 13 12 11 10 8 9 9 8 9 10 10 11 11 11 12 11 11 11 11 11 10 10 10 11 9 7 5 6 6 5 6 8 8 8 9 9 4 1 3 4 4 3 4 3 6 4 2 2 1 1 3 3 1 1 3 3 2 3 3 3 5 4 4 3
5 6 6 5 5 6 8 9 11 11 11 14 15 16 14 15 15 14 14 13 12 8 7 6 8 9 11 9 9 9 9 10 10 11 11 12 11 12 12 12 11 11 11 10 8 9 11 10 9 9 9 7 7 4 8 9 6 8 7 2 4 4 4 4 2 3 4 4 4 2 4 3 2 3 2 2 2 1 3 3 3 4 3 3 3
4 3 3 3 4 4 6 9 11 11 11 13 14 15 15 13 14 15 17 13 9 6 7 8 8 9 11 11 11 10 11 10 10 11 11 12 13 12 12 14 13 12 11 11 10 10 10 10 11 10 8 8 6 6 9 8 7 7 8 9 6 4 4 2 1 2 2 1 4 4 3 2 3 2 1 3 3 3 3 3 4 3 3 4 3
3 1 2 3 4 5 5 7 8 7 9 13 14 16 15 14 15 16 17 15 12 9 9 9 8 8 11 11 11 11 9 11 10 10 13 13 12 12 13 12 11 11 11 11 12 12 11 10 9 8 8 10 8 8 4 5 7 7 7 9 11 12 11 8 9 6 5 4 2 3 3 3 3 4 3 0 1 4 4 4 4 4 3 3 2
Wind_Direction
220 191 189 193 174 170 173 176 178 177 176 175 173 170 168 162 162 158 160 158 159 158 157 159 159 156 157 153 148 144 141 137 131 121 110 109 108 111 115 114 117 116 114 109 100 93 89 84 80 74 71 70 67 67 62 58 53 50 42 34 29 30 31 26 22 20 20 22 23 24 21 20 38 74 78 75 68 62 56 49 44 31 29 27 34
177 194 179 184 180 170 173 172 173 177 176 175 172 169 169 164 164 163 165 163 160 158 158 158 157 158 154 147 144 142 138 134 131 125 118 109 106 101 94 94 100 106 103 101 94 88 82 79 74 68 67 64 60 59 56 53 53 50 46 40 33 29 31 28 22 20 20 22 24 23 21 19 25 52 72 76 74 68 59 46 39 48 31 39 35
148 171 175 180 185 171 172 172 172 172 173 174 173 170 172 164 166 164 165 165 161 159 158 156 157 154 152 149 143 136 124 120 116 111 104 95 87 78 80 81 76 85 99 95 85 84 82 76 69 62 57 58 58 54 48 47 50 51 49 44 38 30 30 29 24 22 21 19 23 23 21 19 17 28 57 73 75 72 65 55 47 42 31 33 31
151 178 169 182 180 167 171 171 171 170 169 169 169 165 166 167 164 165 165 166 164 162 157 155 158 152 144 131 125 121 122 120 117 114 103 92 85 84 81 76 77 83 86 88 89 84 77 71 69 67 59 57 58 60 60 55 53 52 50 46 41 34 29 29 26 24 23 21 22 26 21 10 5 5 41 64 70 64 58 57 51 45 39 36 33
161 169 174 176 177 164 169 166 167 167 166 166 165 163 163 164 162 163 165 165 164 159 156 154 145 140 132 130 124 121 118 118 118 110 103 99 94 90 86 85 83 81 92 90 88 83 76 73 71 67 63 62 62 64 63 57 53 50 48 46 41 37 32 30 30 27 24 24 23 25 13 8 2 350 14 50 70 70 63 52 49 49 44 38 32
166 174 170 175 168 175 166 165 161 161 162 163 163 161 163 162 161 161 163 163 162 156 151 143 138 138 134 132 126 123 120 118 117 114 107 107 107 97 90 92 92 89 93 95 93 87 84 78 75 77 75 72 71 69 65 58 54 52 49 47 44 40 38 35 34 32 28 26 25 19 9 7 357 344 350 49 71 76 70 62 53 46 41 38 33
164 168 168 169 164 168 165 167 162 158 160 160 160 160 161 160 158 158 156 155 153 148 144 143 140 137 137 135 131 127 124 125 128 129 128 125 113 112 103 98 97 97 93 98 94 85 86 83 83 81 80 76 71 67 62 58 55 54 51 48 45 43 42 42 40 36 35 34 20 13 5 2 1 348 341 31 48 54 65 60 56 48 43 38 32
157 165 172 169 157 166 157 170 165 166 167 163 162 161 159 159 156 158 154 152 153 151 148 150 148 148 141 137 138 130 133 137 135 133 125 129 136 137 129 114 111 109 104 90 82 82 80 80 81 82 81 78 72 67 63 60 57 56 54 52 49 47 46 46 45 43 41 35 25 12 360 3 358 348 336 17 31 51 58 53 50 51 48 44 35
167 172 167 166 166 161 175 178 171 177 172 164 173 169 166 164 166 165 160 161 159 157 155 157 154 156 153 148 136 147 142 137 139 136 137 130 135 141 133 126 120 113 108 92 89 84 82 80 78 77 75 72 70 68 66 64 62 59 57 56 55 53 52 51 47 47 39 33 23 15 2 3 355 349 333 13 38 57 51 48 38 40 43 44 48
170 168 168 163 167 173 180 187 182 182 184 185 168 183 176 177 179 174 174 169 171 171 171 167 168 163 154 155 150 158 158 156 144 142 143 141 139 135 138 131 119 107 98 94 92 91 91 88 84 80 77 74 71 70 66 64 62 58 57 56 56 55 54 53 52 47 40 27 26 21 4 14 352 343 0 17 40 49 44 31 33 29 29 33 47
166 171 168 167 172 175 184 189 201 192 190 207 186 179 182 193 202 190 202 172 177 179 180 180 177 176 167 168 168 164 164 162 163 153 159 154 147 143 130 118 108 103 100 97 95 95 94 92 88 85 80 77 74 70 66 63 60 58 56 57 56 55 54 52 51 43 35 32 28 22 360 8 1 329 34 39 48 51 48 40 37 41 38 36 36
172 172 174 176 177 177 188 192 201 201 194 199 207 214 190 198 206 200 203 200 191 185 189 189 192 183 188 183 169 181 169 168 163 162 162 163 156 133 121 115 110 105 103 102 101 101 100 98 95 89 84 80 76 71 68 64 60 57 56 56 57 56 54 52 51 42 37 28 30 17 5 1 353 7 38 50 57 60 59 55 50 48 44 40 40
177 174 178 179 181 185 189 191 197 197 199 192 206 211 223 201 203 205 204 206 199 197 199 200 199 199 192 186 183 180 170 168 170 167 168 161 142 132 124 117 111 108 105 103 103 103 101 98 94 90 88 84 80 75 71 68 65 62 59 58 57 55 54 55 48 43 38 28 28 15 7 357 340 27 37 46 51 50 52 46 42 39 42 37 37
168 176 180 183 183 192 190 197 194 197 196 198 205 205 205 205 198 201 202 202 200 193 195 190 193 188 183 177 172 165 165 164 168 166 162 147 137 131 124 118 113 108 105 103 104 103 102 100 98 95 91 88 84 80 76 72 69 65 62 58 57 55 52 48 46 43 40 31 17 15 8 355 344 32 34 39 45 42 45 47 43 38 40 41 36
168 176 179 179 185 191 194 198 192 200 192 195 202 200 200 201 197 199 195 195 194 189 186 184 183 180 178 175 170 166 165 165 161 161 154 146 139 133 126 120 117 116 112 109 105 101 99 98 96 94 92 90 87 84 80 75 70 67 63 59 54 54 54 49 43 36 34 29 12 10 4 348 10 32 36 37 44 46 44 45 40 36 37 37 33
167 172 176 185 188 188 191 210 188 200 196 194 196 197 197 199 199 196 193 193 189 186 184 182 182 180 179 176 172 168 166 164 162 157 151 147 142 136 131 128 124 121 118 115 112 109 105 100 97 94 92 90 88 86 82 79 76 71 67 62 57 54 52 54 46 35 29 26 11 8 354 343 9 31 37 39 40 43 43 42 38 33 35 36 33
166 168 171 191 197 194 191 203 189 195 196 192 196 198 198 193 197 193 193 191 189 188 186 185 183 181 180 177 171 169 166 164 160 156 152 149 146 140 134 132 129 125 122 119 114 110 106 103 98 95 92 90 87 84 82 78 75 72 69 64 62 58 55 50 47 33 23 25 16 1 347 334 11 29 35 39 39 40 41 39 37 34 32 32 31
182 176 186 187 194 198 195 197 189 188 190 192 194 191 198 194 194 194 188 192 188 187 187 186 184 182 180 177 171 167 164 161 159 157 153 149 142 140 137 134 131 126 121 116 113 110 107 103 100 97 94 90 86 84 80 76 73 70 64 60 57 55 54 54 49 31 22 24 13 353 342 360 16 28 32 37 38 39 39 39 39 37 35 35 33
205 208 206 189 197 194 197 194 191 182 184 184 188 192 192 194 192 190 191 183 181 183 185 185 180 182 178 168 162 161 161 158 158 156 152 144 141 140 139 135 133 127 121 118 115 112 108 103 98 94 90 86 83 79 76 72 69 67 63 58 52 49 48 45 42 35 25 18 10 0 337 12 14 26 31 35 37 39 39 38 38 37 36 35 36
222 219 216 213 200 194 198 196 190 184 176 182 185 186 189 193 194 187 182 176 181 182 181 175 175 175 169 156 153 151 148 149 150 147 144 146 143 141 141 138 133 128 125 121 118 114 111 107 102 96 90 83 78 75 73 70 67 64 63 59 54 49 44 36 33 33 24 15 11 345 1 15 16 21 29 33 36 36 36 37 37 38 37 38 37
228 225 216 210 207 198 199 194 194 181 174 175 182 183 188 185 188 180 178 178 183 176 172 166 166 160 148 144 134 123 121 122 117 126 127 124 139 142 139 139 132 129 124 120 117 114 111 107 103 97 90 81 71 64 61 65 63 62 60 58 55 50 43 42 35 30 25 11 8 336 16 16 18 21 28 32 35 36 37 37 37 37 38 40 40
209 218 221 212 203 206 196 191 186 190 173 176 179 182 184 179 176 175 173 175 176 171 162 148 141 133 132 129 129 130 125 123 126 121 127 129 126 135 139 136 131 127 124 121 117 114 109 105 100 94 87 80 72 64 50 49 54 57 57 58 54 51 42 42 41 31 25 7 4 352 18 19 19 20 26 30 36 37 39 40 43 43 44 46 46
221 217 217 206 204 196 194 193 191 179 175 177 178 182 182 174 177 173 173 171 170 155 146 144 139 138 134 137 135 131 133 135 135 137 137 132 129 131 133 135 133 129 125 120 117 112 108 104 98 93 85 78 71 69 65 61 49 48 48 48 55 47 48 45 44 37 25 5 352 8 17 20 22 20 24 30 36 37 39 42 46 48 51 52 55
217 209 206 191 196 201 200 193 185 178 176 180 175 181 182 174 175 172 170 163 154 149 147 145 144 143 144 143 139 139 135 142 149 142 132 124 119 112 115 113 107 96 96 94 99 104 101 97 94 86 78 75 77 68 73 67 63 56 51 48 50 42 42 42 43 37 27 12 350 15 17 18 23 21 23 31 34 38 40 44 49 52 53 55 57
208 178 181 200 201 200 192 197 185 180 179 178 178 184 178 170 177 174 166 159 151 150 152 149 151 148 150 147 145 141 144 150 137 124 118 116 107 104 102 108 108 108 103 103 95 89 83 84 75 73 69 73 70 59 63 61 54 54 54 47 48 42 38 34 33 36 24 13 357 18 18 18 22 22 24 30 33 36 40 43 49 54 55 57 59
169 192 208 200 198 196 194 188 183 187 188 181 182 176 165 181 182 179 164 162 160 160 158 159 156 159 157 153 146 142 149 143 141 140 135 133 131 136 133 130 125 123 120 117 107 102 89 87 91 85 72 73 75 70 60 73 74 66 64 56 52 47 40 33 28 26 19 10 0 14 20 19 21 23 23 27 32 35 40 38 50 50 53 55 57
200 216 202 204 191 193 195 183 192 186 193 181 173 174 186 184 177 174 169 178 165 165 174 172 169 164 165 161 153 156 154 154 153 154 153 148 148 151 150 146 138 133 141 120 105 97 102 100 96 94 83 78 69 62 63 60 67 79 70 64 55 51 45 37 28 25 14 10 1 8 18 22 22 24 24 26 33 34 40 39 45 49 48 50 51
211 221 202 199 192 197 192 188 195 187 190 182 180 185 184 180 183 177 181 174 169 182 180 179 166 172 173 170 159 159 160 162 166 162 165 153 160 157 149 142 134 126 121 115 118 109 104 103 105 97 96 89 94 84 74 71 67 73 80 65 58 50 43 36 30 24 18 13 7 0 17 21 25 27 24 28 36 35 39 40 40 43 41 43 44
223 211 207 200 200 193 187 196 193 193 188 179 189 187 181 183 183 185 187 179 184 186 178 169 177 177 177 171 162 159 162 163 165 168 153 165 159 154 153 145 133 133 124 116 128 131 124 125 124 125 116 118 121 121 119 93 79 71 80 72 63 54 43 35 31 22 22 17 11 1 13 19 24 29 26 29 38 37 38 38 36 36 37 38 37
219 206 204 211 195 186 193 197 194 191 186 178 194 185 188 189 193 192 185 181 190 181 170 182 182 174 180 179 173 165 170 169 166 161 163 169 165 153 144 145 139 139 133 138 146 137 143 133 129 133 137 146 145 160 136 117 88 77 71 73 58 54 44 37 29 25 19 25 17 9 11 18 22 28 28 33 36 38 40 38 34 34 35 33 32
201 214 209 205 193 186 201 196 194 190 181 191 192 195 185 198 195 189 185 191 180 174 183 185 183 187 181 173 171 169 163 162 162 164 166 162 163 158 153 144 138 151 144 139 138 140 138 146 153 154 158 157 158 161 147 113 99 78 73 75 71 65 47 31 38 33 32 25 26 24 12 19 22 27 29 36 37 39 39 34 35 38 35 30 28
204 218 210 189 188 200 196 192 193 190 187 194 192 194 195 197 191 189 194 187 173 185 186 186 191 188 176 175 172 169 164 164 162 167 166 164 167 165 157 154 162 154 144 138 139 128 132 129 131 142 159 154 136 127 128 110 93 86 89 80 87 79 57 45 56 53 53 42 35 33 30 25 22 31 33 34 37 37 38 37 36 34 30 26 24
217 216 199 186 202 196 191 194 190 190 192 194 195 197 193 191 189 193 189 182 183 184 190 193 192 186 177 176 173 168 169 166 169 169 166 164 161 161 163 171 161 152 137 135 127 122 118 127 138 151 148 149 126 103 117 95 83 73 79 74 84 70 58 70 66 70 61 61 56 48 47 40 36 33 32 37 35 37 39 38 36 31 27 23 21
211 200 185 206 202 190 193 187 190 193 196 195 195 194 194 191 191 189 185 182 188 188 197 193 188 185 181 178 172 173 169 167 162 166 159 159 160 168 170 172 163 151 138 136 139 147 143 144 158 139 126 117 96 68 76 57 47 64 61 55 64 53 50 60 64 74 87 73 80 73 63 57 48 46 41 36 37 39 41 40 37 34 30 26 25
199 196 202 211 181 196 185 193 192 195 193 197 196 198 191 191 188 187 187 187 187 192 193 188 187 186 178 180 177 175 170 168 168 163 164 163 164 171 180 178 158 150 148 156 146 148 145 152 154 123 106 84 84 66 74 80 60 50 40 40 41 42 33 53 40 53 61 81 73 69 72 67 61 64 59 53 41 37 44 44 42 38 33 30 27
205 207 209 189 197 197 190 195 188 195 196 197 197 195 193 191 189 187 186 187 188 193 191 190 187 178 182 179 180 176 172 171 169 166 164 171 171 177 180 162 161 151 152 149 143 153 149 140 154 149 119 88 92 54 42 62 54 52 39 45 32 48 49 39 47 50 39 55 59 65 66 69 75 75 72 65 59 39 44 46 44 38 33 29 29
208 204 201 195 203 196 193 195 193 196 197 196 195 196 191 190 189 189 189 185 191 193 191 182 179 181 180 181 181 180 177 174 172 171 166 170 172 173 170 166 158 156 153 156 155 156 152 148 143 4 87 141 114 113 36 48 48 44 39 49 35 46 54 45 50 57 35 57 55 57 58 59 62 63 58 62 54 48 38 45 41 37 26 24 26
213 208 203 196 201 194 196 198 199 195 193 192 193 191 190 185 187 187 186 190 195 192 184 178 186 182 179 187 181 182 179 176 173 172 171 171 169 167 161 162 158 154 153 156 161 150 146 150 134 51 83 113 119 117 94 46 65 57 52 44 29 48 41 48 47 47 61 60 51 51 50 49 57 49 51 52 50 47 47 37 38 34 24 20 24
212 209 204 205 197 193 195 200 197 192 191 190 186 181 175 174 164 169 180 189 192 190 179 185 186 183 191 187 182 184 179 177 175 171 168 166 164 165 164 166 159 157 155 158 157 160 152 150 147 109 72 84 130 145 139 102 76 75 65 37 37 42 37 62 58 62 55 59 65 68 66 48 61 49 52 49 47 51 45 40 36 30 18 17 24
211 201 203 199 198 194 197 199 197 187 185 178 172 176 171 177 176 161 184 201 191 186 188 192 186 194 196 186 186 184 180 178 175 171 167 165 166 170 168 164 166 161 165 169 176 176 171 154 150 137 122 81 42 67 80 110 83 79 73 49 48 43 68 72 64 56 54 46 69 87 74 66 60 55 52 50 54 50 46 40 34 25 23 14 22
209 200 200 201 198 198 188 200 192 184 180 178 181 178 180 179 183 195 202 192 190 189 192 196 195 199 191 189 185 184 179 175 173 167 172 167 167 162 162 171 170 173 180 190 177 170 166 157 146 131 133 111 78 13 94 123 119 75 36 60 44 30 44 69 70 47 35 24 24 69 74 66 47 47 32 49 47 43 43 37 30 26 23 18 16
217 201 204 204 203 197 197 199 180 186 189 188 185 187 190 188 186 194 194 187 185 188 199 197 199 194 190 189 185 181 177 176 172 174 171 169 167 170 174 177 174 182 183 165 166 166 154 154 156 107 41 131 165 204 216 123 40 148 147 77 13 356 40 17 10 8 7 360 22 46 69 69 50 36 31 45 37 37 37 33 29 26 19 23 16
208 202 209 200 199 199 203 188 187 187 193 189 184 195 193 195 194 193 190 191 203 206 204 194 183 184 184 183 181 180 176 177 176 176 173 177 175 171 181 173 178 171 167 175 174 177 176 173 179 159 136 59 137 198 179 202 143 131 109 93 24 63 359 347 20 17 347 338 5 44 53 73 50 55 45 45 30 20 21 24 25 21 12 14 13
221 217 210 205 202 205 199 191 192 192 190 193 194 191 184 177 170 115 161 148 174 160 156 152 174 164 180 182 189 183 180 182 175 177 179 178 177 180 171 174 180 180 178 175 181 185 179 183 185 184 151 137 178 194 124 174 152 140 96 122 178 124 339 250 303 285 323 21 43 31 24 70 45 50 41 29 12 8 5 18 19 9 5 2 4
223 217 207 205 204 205 198 194 192 192 193 190 187 171 154 143 129 85 101 90 79 145 153 190 186 185 185 194 194 181 183 180 178 182 180 182 181 178 175 179 178 181 179 182 187 191 187 186 180 174 190 160 176 182 164 84 96 293 146 110 66 38 218 207 46 284 10 108 349 335 345 38 63 76 53 11 3 6 355 7 6 360 352 353 353
233 227 211 211 204 203 195 193 190 190 190 186 178 169 175 170 162 163 170 181 186 179 196 198 181 191 202 189 184 188 181 182 180 182 185 179 182 181 179 175 180 180 186 190 185 170 187 188 193 187 192 216 152 156 127 91 70 49 21 129 159 171 178 225 121 232 336 248 291 303 294 359 320 76 50 23 359 338 344 349 3 346 340 340 339
240 225 216 211 205 198 191 191 191 188 184 180 175 174 178 184 187 190 188 188 194 207 202 186 190 198 185 185 190 183 187 183 184 184 185 183 180 181 181 182 181 183 183 176 184 194 193 194 177 189 199 170 147 151 164 169 106 32 48 59 81 74 130 132 199 82 308 305 308 295 281 338 353 42 18 1 330 338 321 350 347 333 330 326 330
246 222 226 215 203 197 186 188 187 187 184 177 180 183 184 187 190 196 196 200 206 203 187 193 185 174 178 181 176 188 189 190 184 187 186 184 181 182 182 181 183 185 180 189 193 191 180 187 188 197 179 194 184 164 167 170 162 182 101 85 75 75 60 71 107 160 162 179 276 321 295 335 8 326 296 305 296 278 304 330 337 326 318 316 315
254 219 221 221 213 198 188 184 189 184 184 181 183 189 190 188 191 193 200 211 206 195 171 168 174 171 177 173 177 182 187 194 190 187 188 185 185 185 183 184 185 185 187 189 190 181 187 183 184 187 195 201 203 173 152 184 172 161 138 74 80 56 48 48 68 78 130 150 261 250 269 330 356 309 324 316 273 294 279 292 312 306 298 302 310
279 243 237 200 199 198 197 189 195 188 184 185 187 190 192 187 193 200 204 203 191 165 155 169 175 174 184 182 181 179 187 188 192 190 187 191 190 186 186 189 190 186 187 189 184 184 188 192 192 192 188 191 197 181 183 176 182 162 167 149 134 98 53 17 14 101 55 117 179 207 224 221 296 283 290 307 300 290 287 290 295 284 284 279 287
322 290 223 188 178 180 197 207 205 191 188 189 188 192 193 193 200 201 202 198 187 168 166 176 167 172 188 188 187 191 183 192 187 192 195 192 193 190 190 192 189 187 187 186 191 189 190 189 187 185 191 190 189 188 186 177 165 167 167 170 168 171 172 173 186 184 159 152 120 233 253 242 199 312 288 293 274 280 275 279 268 281 276 287 308